User: anonymous   Login
Location: Unspecified
(0.0000°N, 0.0000°E)
Time: 11:04:11
(UTC+00:00)
Language:

FLOCK 4H 12 - Orbit

View from above orbital plane
View from above orbital plane
View from above satellite
View from above satellite

Ground track
Ground track

The orbit is defined by the following mean orbital elements,

1 66715U          26145.48462912 +.00000000 +00000-0 +29205-3 0 00003
2 66715  97.4193 219.5325 0003359  69.2799 290.8796 15.20169689    07
Epoch (UTC): 25 May 2026 11:37:51
Eccentricity: 0.0003359
inclination: 97.4193°
perigee height: 503 km
apogee height: 508 km
right ascension of ascending node: 219.5325°
argument of perigee: 69.2799°
revolutions per day: 15.20169689
mean anomaly at epoch: 290.8796°

The dashed part of the orbit path shows where the satellite is in the earth's shadow,  

DLR